| time (UTC) | temp F | wind direction | speed MPH | gust MPH | rain 1hr in | rain 24hr in | rain mn in | humidity % | barometer mb |
| 20260503054523 | 51 | 61 | 0.0 | 0.0 | 0.00 | 0.01 | 0.01 | 78 | 1016.2 |
| 20260503053030 | 51 | 61 | 0.0 | 0.0 | 0.00 | 0.01 | 0.01 | 77 | 1016.2 |
| 20260503051529 | 51 | 61 | 1.0 | 2.0 | 0.00 | 0.01 | 0.01 | 78 | 1016.2 |
| 20260503050011 | 51 | 61 | 1.0 | 2.0 | 0.00 | 0.01 | 0.01 | 77 | 1016.3 |
| 20260503044536 | 52 | 62 | 1.0 | 4.0 | 0.00 | 0.01 | 0.01 | 77 | 1016.2 |
| 20260503043038 | 53 | 66 | 4.0 | 7.0 | 0.00 | 0.01 | 0.01 | 74 | 1015.8 |
| 20260503041524 | 54 | 180 | 1.0 | 4.0 | 0.00 | 0.01 | 0.01 | 76 | 1015.4 |
| 20260503040032 | 55 | 19 | 2.0 | 4.0 | 0.00 | 0.01 | 0.01 | 72 | 1015.3 |
| 20260503034528 | 56 | 13 | 1.0 | 3.0 | 0.00 | 0.01 | 0.01 | 66 | 1015.3 |
| 20260503033027 | 58 | 4 | 2.0 | 4.0 | 0.01 | 0.01 | 0.01 | 60 | 1015.2 |
| 20260503031527 | 58 | 274 | 3.0 | 7.0 | 0.01 | 0.01 | 0.01 | 54 | 1014.8 |
| 20260503030025 | 58 | 291 | 1.0 | 5.0 | 0.01 | 0.01 | 0.01 | 54 | 1014.7 |
| 20260503024526 | 59 | 292 | 4.0 | 10.0 | 0.01 | 0.01 | 0.01 | 55 | 1014.5 |
| 20260503023026 | 59 | 308 | 2.0 | 4.0 | 0.00 | 0.00 | 0.00 | 56 | 1014.5 |
| 20260503021528 | 63 | 291 | 1.0 | 4.0 | 0.00 | 0.00 | 0.00 | 50 | 1014.2 |
| 20260503020023 | 63 | 282 | 0.0 | 4.0 | 0.00 | 0.00 | 0.00 | 42 | 1014.0 |
| 20260503014527 | 64 | 282 | 1.0 | 3.0 | 0.00 | 0.00 | 0.00 | 40 | 1014.0 |
| 20260503013028 | 64 | 258 | 2.0 | 7.0 | 0.00 | 0.00 | 0.00 | 38 | 1014.2 |
| 20260503011530 | 64 | 293 | 4.0 | 14.0 | 0.00 | 0.00 | 0.00 | 39 | 1014.2 |
| 20260503010036 | 64 | 247 | 4.0 | 10.0 | 0.00 | 0.00 | 0.00 | 42 | 1014.0 |
| 20260503004523 | 65 | 12 | 6.0 | 12.0 | 0.00 | 0.00 | 0.00 | 44 | 1013.7 |
| 20260503003026 | 66 | 27 | 3.0 | 11.0 | 0.00 | 0.00 | 0.00 | 46 | 1013.4 |
| 20260503001528 | 68 | 34 | 6.0 | 8.0 | 0.00 | 0.00 | 0.00 | 35 | 1013.2 |
| 20260503000042 | 69 | 54 | 5.0 | 12.0 | 0.00 | 0.00 | 0.00 | 31 | 1013.3 |
| 20260502234526 | 69 | 200 | 6.0 | 17.0 | 0.00 | 0.00 | 0.00 | 30 | 1013.4 |
| 20260502233024 | 69 | 96 | 4.0 | 9.0 | 0.00 | 0.00 | 0.00 | 30 | 1013.5 |
| 20260502231533 | 70 | 68 | 5.0 | 12.0 | 0.00 | 0.00 | 0.00 | 29 | 1013.7 |
| 20260502230028 | 70 | 217 | 2.0 | 9.0 | 0.00 | 0.00 | 0.00 | 29 | 1013.7 |
| 20260502224526 | 70 | 179 | 2.0 | 10.0 | 0.00 | 0.00 | 0.00 | 29 | 1013.9 |
| 20260502223030 | 71 | 124 | 3.0 | 13.0 | 0.00 | 0.00 | 0.00 | 27 | 1014.1 |
| 20260502221505 | 72 | 190 | 5.0 | 15.0 | 0.00 | 0.00 | 0.00 | 27 | 1014.1 |
| 20260502220012 | 72 | 209 | 3.0 | 6.0 | 0.00 | 0.00 | 0.00 | 25 | 1014.2 |
| 20260502214504 | 72 | 198 | 2.0 | 14.0 | 0.00 | 0.00 | 0.00 | 28 | 1014.5 |
| 20260502213004 | 71 | 113 | 2.0 | 12.0 | 0.00 | 0.00 | 0.00 | 26 | 1014.7 |
| 20260502211504 | 72 | 79 | 2.0 | 9.0 | 0.00 | 0.00 | 0.00 | 28 | 1014.8 |
| 20260502210007 | 72 | 89 | 1.0 | 7.0 | 0.00 | 0.00 | 0.00 | 29 | 1014.9 |
| 20260502204513 | 70 | 162 | 1.0 | 6.0 | 0.00 | 0.00 | 0.00 | 30 | 1015.1 |
| 20260502203003 | 69 | 327 | 2.0 | 5.0 | 0.00 | 0.00 | 0.00 | 33 | 1015.3 |
| 20260502201503 | 68 | 290 | 2.0 | 5.0 | 0.00 | 0.00 | 0.00 | 35 | 1015.4 |
| 20260502200008 | 67 | 330 | 2.0 | 4.0 | 0.00 | 0.00 | 0.00 | 38 | 1015.5 |
| 20260502194512 | 67 | 297 | 2.0 | 6.0 | 0.00 | 0.00 | 0.00 | 35 | 1015.5 |
| 20260502193018 | 66 | 345 | 3.0 | 6.0 | 0.00 | 0.00 | 0.00 | 33 | 1015.7 |
| 20260502191503 | 66 | 313 | 3.0 | 6.0 | 0.00 | 0.00 | 0.00 | 39 | 1015.8 |
| 20260502190005 | 65 | 317 | 3.0 | 5.0 | 0.00 | 0.00 | 0.00 | 39 | 1015.9 |
| 20260502184510 | 64 | 333 | 2.0 | 4.0 | 0.00 | 0.00 | 0.00 | 39 | 1016.1 |
| 20260502183016 | 63 | 334 | 1.0 | 3.0 | 0.00 | 0.00 | 0.00 | 46 | 1016.2 |
| 20260502181521 | 62 | 331 | 1.0 | 3.0 | 0.00 | 0.00 | 0.00 | 47 | 1016.4 |
| 20260502163015 | 56 | 338 | 1.0 | 4.0 | 0.00 | 0.00 | 0.00 | 55 | 1017.0 |
| 20260502161512 | 56 | 340 | 2.0 | 4.0 | 0.00 | 0.00 | 0.00 | 53 | 1017.0 |
| 20260502151553 | 50 | 39 | 0.0 | 0.0 | 0.00 | 0.00 | 0.00 | 63 | 1017.0 |
| 20260502123021 | 44 | 166 | 2.0 | 4.0 | 0.00 | 0.00 | 0.00 | 61 | 1016.0 |
| 20260502121524 | 43 | 165 | 2.0 | 4.0 | 0.00 | 0.00 | 0.00 | 65 | 1016.0 |
| 20260502114526 | 43 | 162 | 2.0 | 5.0 | 0.00 | 0.00 | 0.00 | 69 | 1016.2 |
| 20260502113020 | 44 | 115 | 0.0 | 3.0 | 0.00 | 0.00 | 0.00 | 70 | 1016.1 |
| 20260502111520 | 44 | 115 | 0.0 | 2.0 | 0.00 | 0.00 | 0.00 | 63 | 1016.0 |
| 20260502110032 | 45 | 115 | 0.0 | 4.0 | 0.00 | 0.00 | 0.00 | 62 | 1016.1 |
| 20260502104525 | 45 | 108 | 0.0 | 0.0 | 0.00 | 0.00 | 0.00 | 60 | 1016.1 |
| 20260502103028 | 45 | 108 | 0.0 | 0.0 | 0.00 | 0.00 | 0.00 | 60 | 1016.1 |
| 20260502101519 | 45 | 108 | 0.0 | 0.0 | 0.00 | 0.00 | 0.00 | 60 | 1016.2 |
| 20260502091526 | 46 | 106 | 1.0 | 3.0 | 0.00 | 0.00 | 0.00 | 61 | 1016.3 |
| 20260502071527 | 49 | 294 | 0.0 | 3.0 | 0.00 | 0.00 | 0.00 | 50 | 1017.0 |
| 20260502070030 | 50 | 1 | 2.0 | 3.0 | 0.00 | 0.00 | 0.00 | 48 | 1017.0 |
| 20260502064520 | 52 | 1 | 3.0 | 6.0 | 0.00 | 0.00 | 0.00 | 48 | 1016.8 |
| 20260502063034 | 52 | 131 | 2.0 | 4.0 | 0.00 | 0.00 | 0.00 | 43 | 1016.8 |
| 20260502061526 | 52 | 131 | 2.0 | 4.0 | 0.00 | 0.00 | 0.00 | 44 | 1017.0 |